Simultaneous Nadir Overpasses (SNOs) Predictions

Prediction of SNOs between FY3D and NOAA-19 Satellite Orbit:

Table of predicted SNOs for the next 14.0 days since TLE Epoch: 5/2/2020
Index Date (FY3D) Time (FY3D) Lat,Lon (FY3D) SZA (FY3D ) Date (NOAA-19) Time (NOAA-19) Lat,Lon (NOAA-19) SZA (NOAA-19 ) Distance(km) Time Diff (sec)
1 05/04/2020 12:19:27 -79.45, 142.37 115.09 05/04/2020 12:18:18 -79.47, 142.37 115.04 2.74 69
2 05/04/2020 13:10:13 79.47, -50.50 64.94 05/04/2020 13:09:23 79.48, -50.35 64.95 3.12 50
3 05/04/2020 14:00:57 -79.48, 116.75 115.06 05/04/2020 14:00:19 -79.46, 116.77 115.06 1.87 38
4 05/04/2020 14:51:42 79.47, -75.85 64.91 05/04/2020 14:51:24 79.47, -75.95 64.93 2.13 18
5 05/04/2020 15:42:26 -79.48, 91.40 115.09 05/04/2020 15:42:19 -79.48, 91.45 115.09 0.97 7
6 05/04/2020 16:33:11 79.47,-101.20 64.89 05/04/2020 16:33:24 79.49,-101.28 64.91 2.61 13
7 05/04/2020 17:23:55 -79.47, 66.05 115.11 05/04/2020 17:24:19 -79.50, 66.12 115.11 3.06 24
8 05/04/2020 18:14:41 79.50,-126.82 64.92 05/04/2020 18:15:25 79.48,-126.88 64.89 2.72 44
9 05/04/2020 19:05:25 -79.51, 40.43 115.08 05/04/2020 19:06:20 -79.49, 40.52 115.13 2.58 55
10 05/04/2020 19:56:10 79.49,-152.17 64.90 05/04/2020 19:57:25 79.49,-152.20 64.87 0.58 75




NCC Satellite Simultaneous Nadir Overpasses (SNOs) Prediction Service
